CPX773 Details

Departure: Liège Airport (EBLG)
Arrival: Kuwait International Airport (OKBK) at N/A
Route: TUTOV FFM L984 OSBIT UZ205 LULAR Z205 ABUDO Z37 GIMBO INVED M747 CND L5 ADINA L851 KUGOS UW704 SIN CRM UM688 AD AD2D
Notes:


Current Weather Information
EBLG 190750Z 19011KT 9999 FEW010 SCT015 BKN035 12/10 Q1004 TEMPO 4000 -RA BKN015
OKBK 190800Z 34003KT 8000 SKC 36/11 Q1014 NOSIG